Seattle, WA
on Saturday, November 24, 2012

Saturday
Previous Day Next Day
Daily Summary
 ActualAverageRecord
Temperature
Mean Temperature °F 44°F  
Max Temperature 48°F 49°F 59°F (1974)
Min Temperature 39°F 38°F 14°F (2010)
Degree Days
Heating Degree Days 21 21  
Month to date heating degree days 417 453  
Since 1 July heating degree days 910 1050  
Cooling Degree Days 0 0  
Month to date cooling degree days 0 0  
Year to date cooling degree days 177 189  
Moisture
Dew Point 41°F   
Average Humidity 89    
Maximum Humidity 96    
Minimum Humidity 82    
Precipitation
Precipitation T in 0.23 in 2.93 in (1990)
Month to date precipitation 6.71 5.25  
Year to date precipitation 39.84 30.82  
Snow
Snow 0.00 in in 0.20 in (1958)
Month to date snowfall 0.0  
Since 1 July snowfall 0.0  
Snow Depth 0.00 in   
Wind
Wind Speed 3 mph   
Max Wind Speed 12 mph   
Max Gust Speed 14 mph   
Visibility 10 miles   
Events     

Key: T is trace of precipitation, MM is missing value
Source: NWS Daily Summary
Time(PST)TemperatureDew PointHumidity Pressure Visibility Wind DirectionWind SpeedGust SpeedPrecipitationEvents Conditions
12:32 AM 48.2°F 44.6°F 87% 30.14 in 10.0 miles SW 10.4 mph - N/A   Overcast
12:53 AM 46.9°F 44.1°F 90% 30.17 in 10.0 miles WSW 8.1 mph - N/A   Overcast
1:53 AM 46.9°F 44.1°F 90% 30.20 in 10.0 miles SW 3.5 mph - N/A   Overcast
2:53 AM 46.0°F 43.0°F 89% 30.21 in 10.0 miles SW 3.5 mph - N/A   Mostly Cloudy
3:53 AM 44.1°F 42.1°F 93% 30.23 in 10.0 miles South 3.5 mph - 0.00 in   Mostly Cloudy
4:53 AM 46.0°F 42.1°F 86% 30.23 in 10.0 miles South 4.6 mph - N/A   Mostly Cloudy
5:53 AM 45.0°F 42.1°F 90% 30.24 in 10.0 miles SE 3.5 mph - N/A   Mostly Cloudy
6:53 AM 46.0°F 41.0°F 83% 30.25 in 10.0 miles Calm Calm - N/A   Mostly Cloudy
7:33 AM 42.8°F 39.2°F 87% 30.22 in 10.0 miles SSE 4.6 mph - N/A   Mostly Cloudy
7:53 AM 43.0°F 41.0°F 93% 30.25 in 10.0 miles SE 3.5 mph - N/A   Mostly Cloudy
8:40 AM 42.8°F 39.2°F 87% 30.24 in 10.0 miles Calm Calm - N/A   Mostly Cloudy
8:44 AM 42.8°F 39.2°F 87% 30.24 in 10.0 miles Calm Calm - N/A   Mostly Cloudy
8:53 AM 44.1°F 41.0°F 89% 30.27 in 10.0 miles Calm Calm - N/A   Mostly Cloudy
9:53 AM 46.0°F 42.1°F 86% 30.28 in 10.0 miles South 4.6 mph - N/A   Mostly Cloudy
10:41 AM 44.6°F 42.8°F 93% 30.25 in 10.0 miles South 3.5 mph - N/A   Mostly Cloudy
10:53 AM 45.0°F 42.1°F 90% 30.28 in 10.0 miles Calm Calm - N/A   Mostly Cloudy
11:49 AM 46.4°F 41.0°F 81% 30.25 in 10.0 miles Variable 4.6 mph - N/A   Mostly Cloudy
11:53 AM 46.0°F 41.0°F 83% 30.27 in 10.0 miles South 4.6 mph - N/A   Mostly Cloudy
12:28 PM 46.4°F 42.8°F 87% 30.24 in 10.0 miles South 5.8 mph - N/A   Mostly Cloudy
12:53 PM 46.0°F 42.1°F 86% 30.27 in 10.0 miles SSW 4.6 mph - N/A   Mostly Cloudy
1:36 PM 46.4°F 41.0°F 81% 30.24 in 10.0 miles SW 4.6 mph - N/A   Mostly Cloudy
1:53 PM 45.0°F 39.9°F 82% 30.27 in 10.0 miles WSW 3.5 mph - N/A   Mostly Cloudy
2:19 PM 44.6°F 39.2°F 81% 30.24 in 10.0 miles Calm Calm - N/A   Scattered Clouds
2:53 PM 45.0°F 39.9°F 82% 30.26 in 10.0 miles Calm Calm - N/A   Scattered Clouds
3:53 PM 44.1°F 39.9°F 85% 30.26 in 10.0 miles Calm Calm - N/A   Mostly Cloudy
4:53 PM 43.0°F 39.0°F 86% 30.26 in 10.0 miles NNW 3.5 mph - N/A   Mostly Cloudy
5:03 PM 42.8°F 39.2°F 87% 30.23 in 10.0 miles NNW 4.6 mph - N/A   Overcast
5:53 PM 44.1°F 39.9°F 85% 30.26 in 10.0 miles Calm Calm - N/A   Mostly Cloudy
6:53 PM 43.0°F 39.0°F 86% 30.25 in 10.0 miles Calm Calm - N/A   Scattered Clouds
7:53 PM 44.1°F 39.0°F 82% 30.26 in 10.0 miles NE 4.6 mph - N/A   Overcast
8:53 PM 42.1°F 37.9°F 85% 30.26 in 10.0 miles North 4.6 mph - N/A   Overcast
9:53 PM 39.9°F 37.9°F 93% 30.28 in 10.0 miles Calm Calm - N/A   Mostly Cloudy
10:53 PM 39.9°F 37.0°F 89% 30.28 in 10.0 miles Calm Calm - N/A   Scattered Clouds
11:53 PM 42.1°F 37.9°F 85% 30.30 in 10.0 miles North 4.6 mph - N/A   Mostly Cloudy
Moon Phase
Nov. 24 Nov. 28 Dec. 06 Dec. 13 Dec. 20
Sunrise:07:27 AM (PST) Moon Rise:02:22 PM (PST)11/24
Sunset:04:24 PM (PST) Moon Set:03:37 AM (PST)11/24

Copyright © 2014 The Weather Underground, Inc.